This is the latest recevied weather packets stored in our database for station/object SQ7IQO. If no packets are shown the sender has not sent any weather packets the latest 10 day(s).
| Time | Temp. | Humidity | Pressure | Rain* | Wind** | Luminosity | Snow |
|---|---|---|---|---|---|---|---|
| 1787923840 | 27.78° C | 35% | 1018.2 hPa | 0 mm | 0.89 m/s, ° | - | - |
| 1787923780 | 27.78° C | 38% | 1018.2 hPa | 0 mm | 0.45 m/s, ° | - | - |
| 1787923720 | 27.22° C | 36% | 1018.2 hPa | 0 mm | 0 m/s | - | - |
| 1787923660 | 26.67° C | 36% | 1018.2 hPa | 0 mm | 0 m/s | - | - |
| 1787923600 | 26.67° C | 37% | 1018.2 hPa | 0 mm | 0 m/s | - | - |
| 1787923540 | 26.67° C | 36% | 1018.2 hPa | 0 mm | 0.45 m/s, ° | - | - |
| 1787923480 | 26.11° C | 36% | 1018.2 hPa | 0 mm | 0.45 m/s, ° | - | - |
| 1787923420 | 26.11° C | 36% | 1018.2 hPa | 0 mm | 0.45 m/s, ° | - | - |
| 1787923360 | 26.67° C | 36% | 1018.3 hPa | 0 mm | 0.89 m/s, ° | - | - |
| 1787923300 | 26.67° C | 36% | 1018.4 hPa | 0 mm | 0.45 m/s, ° | - | - |
| 1787923240 | 27.22° C | 35% | 1018.4 hPa | 0 mm | 0.89 m/s, ° | - | - |
| 1787923180 | 27.78° C | 34% | 1018.3 hPa | 0 mm | 0.45 m/s, ° | - | - |
| 1787923120 | 27.22° C | 37% | 1018.3 hPa | 0 mm | 0 m/s | - | - |
| 1787923060 | 26.67° C | 37% | 1018.3 hPa | 0 mm | 0 m/s | - | - |
| 1787923000 | 26.67° C | 37% | 1018.3 hPa | 0 mm | 0.45 m/s, ° | - | - |
| 1787922940 | 26.67° C | 38% | 1018.3 hPa | 0 mm | 0.45 m/s, ° | - | - |
| 1787922880 | 26.67° C | 36% | 1018.3 hPa | 0 mm | 0.45 m/s, ° | - | - |
| 1787922820 | 26.67° C | 36% | 1018.3 hPa | 0 mm | 0.89 m/s, ° | - | - |
| 1787922760 | 26.67° C | 35% | 1018.3 hPa | 0 mm | 0.89 m/s, ° | - | - |
| 1787922700 | 26.67° C | 36% | 1018.4 hPa | 0 mm | 0.45 m/s, ° | - | - |
| 1787922640 | 27.22° C | 36% | 1018.3 hPa | 0 mm | 0.89 m/s, ° | - | - |
| 1787922580 | 28.33° C | 35% | 1018.4 hPa | 0 mm | 0.89 m/s, ° | - | - |
| 1787922520 | 28.33° C | 35% | 1018.4 hPa | 0 mm | 0.89 m/s, ° | - | - |
| 1787922460 | 28.33° C | 36% | 1018.4 hPa | 0 mm | 0 m/s | - | - |
| 1787922400 | 27.78° C | 37% | 1018.4 hPa | 0 mm | 0 m/s | - | - |
* Rain latest hour (hover to see other rain measurements)
** Current wind speed in m/s (hover to see current wind gust speed)